Weather in Yezhovo

Russia / Mari El Republic     56°42′49″N   48°07′16″E
temp.,
°C
wind,
m/s
gust,
m/s
humid.,
%
clouds,
%
prec.,
mm/h
press.,
hPa
HPBL,
m
25 february, thu
thu2500:00−24ssw229590 0.0 103420
03:00−24s339888 0.0 103361
06:00−22s4896100 0.0 1029233
09:00−20sse51093100 0.0 1026313
12:00−17sse61295100 0.6 1022457
15:00−15sse61194100 1.6 1020620
18:00−16sse51094100 1.1 1018599
21:00−17se51093100 1.2 1017404
26 february, fri
fri2600:00−17se4994100 0.1 1016375
03:00−17se399599 0.1 1017352
06:00−19se399697 0.1 1016248
09:00−18se489498 0.1 1016329
12:00−14se5892100 0.0 1014442
15:00−13se61191100 0.1 1012511
18:00−13se71593100 0.3 1006540
21:00−12se81594100 3.3 1002596
27 february, sat
sat2700:00−11se61294100 4.1 999524
03:00−11se5994100 4.7 998331
06:00−12ese4795100 0.4 996258
09:00−11e4794100 0.6 997275
12:00−8ene5892100 0.2 998381
15:00−9ene5893100 0.4 999412
18:00−11ne5109398 0.1 1001403
21:00−13nne499493 0.2 1003254
28 february, sun
sun2800:00−13nne599489 0.1 1004337
03:00−15n599495 0.4 1007308
06:00−16n4109499 0.1 1008343
09:00−17n589498 0.1 1009324
12:00−15n579197 0.0 1011383
15:00−14n589091 0.0 1012479
18:00−17n499490 0.0 1014242
21:00−20n369745 0.0 1017113
1 march, mon
mon100:00−22n34980 0.0 101974
03:00−23n36970 0.0 102097
06:00−23n33980 0.0 102266
09:00−20n24950 0.0 1023153
12:00−14nw238730 0.0 1023311
15:00−12w249034 0.0 1022319
18:00−13sw389663 0.0 1020170
21:00−13sw4109778 0.0 1018242